Temp
16 17 17 17 17 17 17 17 17 17 17 17 16 17 15 15 14 13 12 12 12 12 12 12 12 11 11 11 11 10 10 10 10 10 10 9 9 9 9 9 9 9 9
16 16 16 15 16 16 16 17 17 17 17 17 16 16 15 15 14 13 12 12 12 12 12 12 12 12 11 11 10 10 10 10 10 9 9 9 9 9 8 8 8 8 8
16 16 16 15 15 16 16 17 17 17 17 16 16 16 15 15 14 13 12 12 12 12 12 12 12 12 11 11 10 10 10 10 9 9 9 9 8 8 8 8 8 8 8
16 16 16 15 15 15 15 16 17 17 17 16 15 15 14 15 14 13 13 12 12 12 12 12 11 11 11 11 10 10 10 9 9 9 9 8 8 8 8 8 7 7 7
16 15 15 15 14 14 15 15 16 17 16 15 14 15 14 16 14 13 13 13 12 12 12 11 11 11 11 11 10 10 10 9 9 9 8 8 8 8 8 7 7 7 7
16 16 15 15 15 15 15 16 16 17 16 15 14 14 14 15 14 14 13 13 13 13 12 12 11 11 10 10 10 10 10 10 9 9 8 8 8 8 7 7 7 7 7
16 16 16 15 16 16 15 16 15 15 14 14 13 13 13 13 14 13 13 13 13 13 12 12 12 11 10 10 10 10 10 10 9 9 8 8 8 7 7 7 7 7 7
15 16 17 16 16 16 15 15 15 15 14 14 14 13 12 12 13 13 13 13 13 13 13 12 12 12 11 10 10 10 10 10 10 9 9 8 8 7 7 7 7 7 7
16 16 15 15 16 17 16 15 15 15 14 14 14 15 13 14 13 13 13 13 13 13 13 13 13 12 12 11 11 10 10 10 10 9 9 8 8 7 7 7 7 7 7
15 14 14 15 15 17 16 15 15 15 14 14 13 15 16 15 13 12 13 13 13 13 13 13 13 13 12 12 12 11 10 10 10 9 9 8 8 8 7 7 7 7 7
15 15 15 15 15 17 16 16 15 14 15 14 14 14 15 15 15 13 13 12 12 13 13 13 13 13 13 13 12 12 12 10 10 10 9 9 8 8 8 7 7 7 7
14 15 16 15 16 15 17 16 15 15 14 15 14 16 16 15 13 13 11 11 13 12 13 14 13 13 13 13 13 13 12 12 11 11 10 9 9 8 8 8 7 7 7
14 14 14 15 15 16 15 15 15 15 14 14 15 15 16 17 17 16 15 11 11 13 13 13 14 14 14 14 14 13 13 13 12 11 11 11 10 9 8 8 8 7 7
14 14 14 14 14 15 14 14 14 14 14 14 14 14 15 16 17 17 17 14 11 11 13 15 15 15 15 15 15 14 14 13 13 12 12 11 11 10 10 9 8 7 7
15 14 14 14 14 14 14 14 14 15 14 14 14 14 15 16 16 16 17 18 17 12 11 15 16 17 16 15 15 14 14 14 13 13 12 12 11 11 11 10 9 9 8
15 15 14 14 14 14 14 14 14 14 14 14 14 14 14 14 16 16 17 17 18 18 13 16 18 17 17 16 16 15 15 15 14 13 13 12 12 11 11 11 10 9 9
15 15 15 14 15 15 14 14 15 15 14 14 14 14 14 14 14 16 17 17 17 17 16 18 18 17 16 17 16 15 15 14 14 14 13 13 12 12 11 11 10 10 10
15 15 15 14 15 15 15 15 15 15 15 14 14 14 14 14 15 16 17 17 16 17 17 16 17 18 17 16 16 16 15 15 14 14 14 13 13 12 12 11 10 10 10
15 15 15 14 14 15 15 15 15 15 15 15 14 14 14 14 14 15 16 16 17 17 17 16 17 16 16 16 15 15 15 15 14 14 14 13 13 12 12 11 10 10 10
15 15 15 15 14 14 15 15 15 15 15 15 15 14 14 14 15 16 15 17 17 16 15 14 15 15 15 15 15 14 14 14 13 13 13 13 13 12 12 11 11 10 9
12 15 15 15 14 14 14 14 15 15 15 15 15 15 15 15 16 17 17 16 15 15 13 13 13 13 14 13 14 15 14 14 13 13 13 13 13 12 12 11 11 11 10
8 13 15 14 14 14 15 14 15 15 15 16 15 15 15 15 16 17 18 18 18 16 14 13 13 13 14 14 15 16 14 11 9 13 11 12 12 12 12 12 12 11 11
5 8 13 15 14 14 14 14 15 15 16 16 16 16 15 15 16 17 17 18 17 18 18 17 15 14 14 15 15 14 14 13 13 14 12 10 11 11 12 12 11 11 11
3 6 10 14 15 15 15 15 14 15 15 16 16 16 16 15 15 16 16 16 16 16 16 16 17 17 17 16 16 16 14 12 11 12 12 11 11 10 10 11 11 11 10
2 4 8 13 15 15 16 15 15 13 15 15 15 15 16 15 15 16 15 14 14 14 16 15 15 15 16 15 15 13 12 10 9 10 10 10 9 8 9 9 10 10 10
1 3 7 12 14 14 14 15 14 13 14 14 15 14 15 15 15 15 15 14 14 14 13 13 13 13 14 14 13 13 13 10 9 7 10 8 8 8 8 8 9 10 10
Height
789 794 797 800 805 807 813 817 819 823 827 832 837 840 844 846 849 851 854 857 858 860 862 863 865 866 867 868 870 871 873 874 875 876 876 878 879 880 880 880 881 881 882
787 791 795 798 803 808 813 816 819 823 828 833 838 841 844 847 850 853 855 857 859 861 863 865 866 868 869 870 872 873 874 875 876 877 878 879 880 881 881 882 882 882 883
782 786 788 796 802 808 814 816 820 823 828 833 838 842 845 848 851 854 856 857 859 861 863 866 868 870 871 872 873 875 875 876 877 878 879 880 880 881 882 882 883 883 884
780 783 790 791 797 805 810 815 817 823 827 833 838 843 845 848 852 854 856 857 858 860 863 866 868 870 872 873 874 875 876 877 878 879 879 880 881 881 882 882 883 885 885
778 783 787 789 794 805 811 815 818 821 826 833 838 843 845 848 852 854 856 857 858 860 862 865 867 869 871 873 874 876 877 878 878 879 880 881 882 882 883 884 885 886 886
777 779 789 795 800 805 810 813 817 822 826 831 837 843 846 848 851 854 855 857 858 860 862 864 866 868 870 872 873 875 877 878 879 879 879 881 881 882 883 884 885 886 886
773 781 783 792 798 802 807 811 817 821 827 830 836 843 847 849 851 853 855 856 857 858 860 862 864 866 868 870 872 874 876 877 878 879 879 880 881 881 883 883 884 885 886
772 778 780 789 796 801 805 809 813 819 824 828 832 839 846 851 852 851 853 854 855 856 858 860 862 864 866 868 870 872 874 875 876 877 878 879 880 881 881 882 883 883 885
767 774 775 780 790 794 800 805 809 813 819 826 828 830 840 843 847 849 849 850 852 853 855 857 860 862 864 865 867 869 871 873 874 875 876 877 877 878 879 881 882 883 884
764 769 774 779 786 789 796 801 806 810 815 820 825 825 827 833 841 846 845 846 848 849 851 854 856 859 861 863 864 866 868 870 871 872 873 874 875 876 877 879 880 881 882
757 763 770 777 782 783 793 798 802 807 810 815 818 821 826 830 832 836 839 840 843 843 846 849 852 855 857 859 861 863 865 866 868 869 870 872 873 874 874 876 877 878 879
752 759 765 773 778 781 785 795 799 802 807 809 813 818 819 823 826 830 835 835 835 838 840 844 847 849 852 854 856 858 861 863 864 865 866 868 869 871 872 873 874 875 877
746 750 758 766 772 775 780 789 793 795 800 804 806 811 816 817 820 824 827 831 832 834 836 838 841 844 846 848 850 853 856 858 860 861 862 864 866 867 868 869 871 873 874
738 744 750 758 766 771 778 786 790 790 794 797 800 806 810 813 816 819 822 824 829 832 833 832 833 835 839 840 843 847 850 853 855 857 859 860 861 863 865 866 867 869 870
735 738 745 751 757 766 772 778 783 785 787 791 795 803 806 808 812 816 817 820 820 829 829 825 829 828 830 834 837 841 843 846 849 852 855 856 858 858 858 860 862 864 865
730 734 738 745 751 757 764 770 775 781 782 785 791 796 799 803 805 810 811 814 818 818 823 820 820 823 825 828 831 835 838 841 843 846 849 851 852 853 855 855 856 858 860
724 728 732 737 742 748 754 760 767 773 774 778 785 790 793 796 799 803 806 809 812 814 816 817 818 820 822 823 825 828 832 834 835 838 841 844 847 848 850 852 852 853 854
718 722 725 725 735 740 743 750 758 764 767 771 779 784 786 788 793 795 796 801 806 808 811 812 813 815 816 819 821 823 825 827 829 833 836 839 841 843 844 846 848 848 849
710 714 719 721 724 732 736 740 747 754 758 762 769 774 776 780 785 787 791 795 799 802 804 807 807 810 812 814 816 817 820 822 823 827 830 833 835 837 839 840 842 844 844
704 706 710 715 718 723 729 734 737 745 751 755 760 765 768 773 775 777 783 785 791 794 797 801 803 805 807 809 811 812 813 814 816 820 822 825 829 831 832 835 837 838 839
698 699 704 707 711 711 718 724 729 734 740 745 749 754 758 762 766 769 772 778 784 786 790 795 798 799 801 802 802 804 807 809 812 814 816 818 820 822 824 827 828 830 832
697 694 696 700 701 702 705 712 717 723 728 733 739 744 748 752 757 761 764 769 774 777 782 785 789 791 790 792 794 797 799 804 807 805 809 810 813 812 813 816 821 823 826
693 688 685 685 695 695 697 696 707 713 714 718 725 731 736 740 745 751 757 761 765 768 771 774 778 778 781 782 789 792 793 794 795 798 802 803 804 806 808 809 814 818 820
694 689 683 685 683 688 690 692 693 701 711 710 713 719 725 729 733 741 747 752 756 759 764 766 767 770 773 777 779 781 785 789 792 794 797 798 798 799 801 805 809 813 817
694 686 680 677 675 679 682 684 689 695 703 704 705 708 715 719 725 731 738 743 746 749 754 757 761 763 766 771 777 779 781 785 787 788 790 793 794 796 797 801 804 807 811
695 688 678 671 673 673 672 678 681 683 688 692 700 702 706 709 715 721 726 732 735 739 743 747 751 756 760 764 768 770 773 776 777 782 782 787 788 793 795 796 799 801 804
Wind_Speed
35 30 32 31 31 33 34 33 30 33 31 26 24 21 20 17 16 16 17 16 15 14 14 14 13 13 13 13 13 13 13 12 12 12 12 12 12 12 12 12 12 12 11
33 34 35 36 33 27 30 33 32 32 31 25 24 22 21 17 16 16 17 17 15 15 13 13 12 12 12 12 12 12 12 12 12 11 11 12 11 11 10 10 11 11 10
34 35 34 35 39 31 29 31 30 28 30 27 25 23 20 15 16 16 16 16 16 15 13 12 11 11 11 11 11 11 11 11 11 11 11 11 11 11 10 9 9 9 9
29 29 25 32 38 37 27 30 31 31 30 28 26 23 22 16 15 15 15 16 16 15 15 13 13 12 11 11 11 11 11 11 11 11 11 10 10 10 9 9 8 8 7
32 29 21 20 37 36 33 32 30 32 31 27 26 23 21 17 16 16 15 15 15 14 15 15 14 14 13 12 12 11 11 11 11 11 11 10 10 9 9 8 8 7 6
33 31 26 25 30 35 34 32 30 29 33 30 25 23 20 18 18 16 16 15 14 14 14 14 15 16 16 14 13 12 12 12 11 11 11 11 10 9 9 8 7 7 6
35 34 31 27 29 34 34 33 29 30 26 31 26 17 15 16 16 17 16 16 17 15 15 14 14 15 16 16 15 14 14 13 13 12 12 12 11 11 10 9 9 7 6
44 42 32 27 32 34 31 35 30 25 19 34 16 12 3 4 14 18 18 20 20 18 18 17 15 15 16 18 18 17 16 15 14 13 13 13 13 12 11 10 10 9 8
47 48 49 38 36 39 35 34 35 31 22 27 30 8 3 3 5 14 22 23 25 24 21 20 18 17 17 17 18 20 20 19 17 15 15 15 14 13 13 12 11 10 9
39 42 44 36 37 38 36 34 36 38 26 26 27 13 12 13 4 2 16 23 23 26 26 24 23 21 19 20 19 19 20 22 21 18 17 17 16 15 14 13 12 11 11
45 43 44 42 34 38 36 33 31 33 38 33 30 21 15 13 9 3 3 10 24 26 26 27 26 25 24 22 23 22 20 23 24 22 19 18 17 16 16 15 14 13 13
43 48 48 46 36 34 42 35 36 39 35 33 33 29 26 12 11 6 2 4 13 19 29 27 28 29 27 27 25 24 23 22 23 22 22 21 19 18 17 16 16 15 14
36 43 45 43 41 39 43 43 36 39 40 37 40 34 28 30 16 20 7 4 5 11 13 30 31 30 29 30 30 27 25 25 24 23 22 22 22 21 19 18 17 16 15
38 41 45 43 41 39 38 38 37 36 40 39 35 31 34 36 32 23 17 9 2 5 14 11 24 34 33 32 30 28 28 27 26 25 23 22 22 22 22 21 19 18 17
32 41 43 42 42 37 38 41 38 35 35 37 35 38 35 38 37 34 25 21 9 4 5 13 18 22 35 33 31 29 29 27 26 26 24 24 23 23 22 22 21 22 22
34 36 41 42 41 43 39 38 37 36 40 35 38 34 36 34 38 40 34 27 24 17 3 19 22 19 20 32 31 29 30 27 27 27 26 25 25 24 23 23 22 23 23
34 35 39 43 42 43 42 41 37 36 37 35 38 36 37 37 34 38 39 35 32 26 15 13 16 19 25 18 25 30 29 30 30 29 28 27 26 25 23 24 24 23 23
37 37 38 38 42 43 44 44 42 38 37 36 37 36 39 37 38 36 36 43 40 35 29 21 20 19 18 22 24 23 27 30 32 30 29 28 27 26 25 25 25 24 23
32 37 36 39 41 43 43 43 43 39 37 39 39 39 36 34 36 35 39 38 41 39 38 29 24 19 20 20 22 25 26 28 30 30 29 29 28 26 27 26 25 26 24
34 32 36 38 40 41 41 42 43 41 38 40 39 38 37 36 40 40 39 40 41 38 35 32 26 23 19 22 23 24 25 30 32 30 31 30 29 27 27 27 25 26 25
15 34 35 40 39 40 40 42 43 44 44 38 40 42 42 43 47 46 41 40 37 36 28 24 21 19 20 18 24 26 28 29 28 29 30 32 32 32 29 27 27 26 25
23 16 34 39 39 40 48 49 48 46 44 43 40 41 44 47 50 50 47 46 46 41 31 25 24 19 30 34 32 30 26 15 7 25 30 34 33 36 31 29 27 27 24
29 27 21 30 38 40 44 49 55 48 47 47 45 43 41 38 48 49 47 48 48 48 45 43 31 34 29 38 37 31 30 27 23 17 20 25 33 36 34 29 25 24 22
31 27 27 31 35 35 43 50 51 53 43 43 45 43 42 40 42 47 47 49 49 48 46 45 44 44 44 38 37 38 35 29 21 22 21 17 24 28 28 26 22 21 20
33 31 29 28 27 32 36 41 50 51 43 39 41 45 45 43 42 47 44 39 41 46 49 47 46 43 41 37 33 26 22 19 12 13 24 20 12 12 12 14 18 19 19
29 29 19 15 31 30 27 33 42 41 38 36 37 38 45 46 43 43 45 39 36 36 41 43 39 41 40 36 30 28 27 22 11 8 20 19 13 11 4 15 18 18 17
Wind_Direction
188 187 183 169 169 169 168 161 157 161 163 165 161 159 156 150 146 143 144 149 146 144 145 146 146 145 145 145 145 144 142 140 138 137 135 134 132 128 122 120 117 111 107
191 192 190 184 174 180 170 165 160 164 163 163 160 161 157 154 153 149 151 151 151 151 151 152 152 153 153 153 153 151 150 149 147 146 144 142 140 134 130 127 123 119 113
188 189 189 183 179 181 178 169 164 162 165 166 163 161 158 156 159 157 161 156 157 160 158 160 161 162 163 164 162 161 161 158 157 155 154 152 149 144 141 137 134 130 123
195 202 180 175 175 184 177 178 167 166 166 168 165 167 162 163 165 165 169 168 167 167 169 176 176 174 175 175 174 173 172 170 167 164 164 163 160 155 155 150 147 141 132
190 182 184 169 178 177 188 188 172 171 163 165 167 168 166 167 174 173 175 178 178 179 181 188 189 190 186 185 186 185 183 181 177 174 176 173 172 169 166 160 160 153 147
188 180 186 186 180 180 183 181 176 173 174 170 162 168 170 174 182 186 185 187 189 191 193 198 202 203 199 193 192 194 195 193 189 187 186 184 183 185 181 175 177 173 168
180 190 185 193 191 189 185 181 172 169 160 171 151 149 162 178 192 199 203 203 201 202 205 207 212 216 210 201 198 201 202 201 199 199 196 194 196 194 197 191 191 192 194
184 192 178 190 198 192 188 186 176 162 165 173 159 134 141 178 215 214 217 220 216 213 214 216 219 222 219 212 205 204 207 208 205 206 206 204 207 205 205 207 206 207 208
188 193 188 192 198 194 191 190 184 180 169 178 171 153 133 200 158 219 221 227 226 223 225 223 225 227 225 222 218 210 208 211 210 210 212 213 213 213 214 217 219 223 225
180 183 188 196 197 193 196 193 192 188 181 180 186 177 157 151 176 205 220 220 226 226 229 229 228 230 229 225 225 224 218 214 215 213 216 218 218 218 220 223 227 230 235
193 195 196 197 196 192 196 198 192 191 195 186 185 185 182 180 175 144 203 200 219 227 229 231 232 231 231 231 230 230 227 222 221 221 220 221 224 224 224 226 229 232 239
193 201 203 206 201 190 194 212 212 200 197 193 191 196 190 176 189 169 150 203 214 223 226 229 231 233 235 236 235 235 233 230 228 230 231 231 227 228 229 232 234 235 240
191 195 200 204 208 203 199 210 210 204 202 199 197 200 205 208 210 201 189 167 198 198 213 230 234 236 236 236 238 237 235 235 234 234 236 237 239 238 234 232 235 239 241
196 194 197 202 205 207 204 212 213 205 204 203 205 207 210 215 219 215 206 167 127 195 219 223 236 234 236 236 236 236 237 236 237 237 237 239 241 244 247 246 241 239 241
200 199 199 198 198 203 206 209 210 210 205 208 213 216 216 220 223 226 223 220 181 182 227 229 225 236 234 238 238 236 237 237 239 239 240 241 241 243 245 249 250 250 248
201 199 198 200 200 203 207 205 209 214 209 212 216 221 222 221 226 229 224 226 229 223 216 226 228 229 230 233 237 238 239 240 240 240 240 241 241 244 249 250 251 252 253
201 201 200 201 201 203 205 207 208 212 208 213 216 220 221 220 221 227 230 227 234 230 220 253 244 241 238 238 238 237 237 238 239 239 240 241 244 244 249 254 254 252 254
206 205 201 201 203 205 203 206 209 212 206 204 213 214 220 217 224 226 231 229 232 234 232 241 241 238 234 238 242 242 241 241 240 240 242 242 243 246 250 254 257 255 254
217 210 206 204 206 207 205 206 210 212 211 211 213 215 218 215 221 221 227 227 233 239 237 234 241 238 231 236 234 238 240 244 246 243 243 244 245 244 249 254 257 256 255
226 216 211 213 209 209 210 210 208 214 216 217 217 220 220 218 221 220 223 229 231 232 231 230 236 234 233 235 236 237 238 240 240 240 241 242 243 242 248 250 255 254 256
310 222 221 220 217 211 212 212 211 210 213 215 218 223 224 224 229 229 224 226 224 226 220 220 225 228 226 219 219 234 240 250 248 245 245 242 237 238 243 244 248 249 249
314 298 227 223 216 216 221 217 211 213 213 213 215 216 220 222 228 233 235 237 235 223 216 213 221 221 231 233 235 234 229 217 242 251 239 245 240 239 241 242 246 247 250
322 305 278 225 224 221 219 216 216 214 212 214 216 219 223 220 226 232 233 239 240 243 242 236 224 224 232 237 240 232 230 227 228 237 224 238 243 242 246 240 243 246 248
324 307 288 251 224 229 223 220 218 216 218 215 215 216 221 222 224 226 230 230 232 238 242 240 242 247 248 250 247 245 241 236 237 243 239 225 250 243 249 241 240 243 243
329 318 300 265 243 232 235 232 220 217 220 219 215 215 219 222 222 226 222 223 229 235 241 243 241 244 249 254 255 235 216 200 215 233 232 228 234 221 227 234 234 233 237
338 326 326 266 244 242 244 242 235 217 220 226 222 218 219 220 220 223 221 220 223 229 237 239 237 239 243 245 243 240 235 206 191 205 230 204 201 191 192 224 226 225 222